owner,sensor,date,latitude,longitude,air_pressure(mBar),qcFlag 
WAVCIS,ioos:station:WAVCIS:CSI03:1,2010-05-01T00:00:00Z,29.4412,-92.0613,1001.076,11111222 
WAVCIS,ioos:station:WAVCIS:CSI03:1,2010-05-01T01:00:00Z,29.4412,-92.0613,1001.377,11111222 
WAVCIS,ioos:station:WAVCIS:CSI03:1,2010-05-01T02:00:00Z,29.4412,-92.0613,1001.706,11111222 
WAVCIS,ioos:station:WAVCIS:CSI03:1,2010-05-01T03:00:00Z,29.4412,-92.0613,1002.103,11111222 
WAVCIS,ioos:station:WAVCIS:CSI03:1,2010-05-01T04:00:00Z,29.4412,-92.0613,1001.877,11111222 
WAVCIS,ioos:station:WAVCIS:CSI03:1,2010-05-01T05:00:00Z,29.4412,-92.0613,1001.201,11111222 
WAVCIS,ioos:station:WAVCIS:CSI03:1,2010-05-01T06:00:00Z,29.4412,-92.0613,1001.135,11111222 
WAVCIS,ioos:station:WAVCIS:CSI03:1,2010-05-01T07:00:00Z,29.4412,-92.0613,1000.513,11111222 
WAVCIS,ioos:station:WAVCIS:CSI03:1,2010-05-01T08:00:00Z,29.4412,-92.0613,999.886,11111222 
WAVCIS,ioos:station:WAVCIS:CSI03:1,2010-05-01T09:00:00Z,29.4412,-92.0613,999.649,11111222 
WAVCIS,ioos:station:WAVCIS:CSI03:1,2010-05-01T10:00:00Z,29.4412,-92.0613,999.354,11111222 
WAVCIS,ioos:station:WAVCIS:CSI03:1,2010-05-01T11:00:00Z,29.4412,-92.0613,999.603,11111222 
WAVCIS,ioos:station:WAVCIS:CSI03:1,2010-05-01T12:00:00Z,29.4412,-92.0613,1000.007,11111222 
WAVCIS,ioos:station:WAVCIS:CSI03:1,2010-05-01T13:00:00Z,29.4412,-92.0613,1000.745,11111222 
WAVCIS,ioos:station:WAVCIS:CSI03:1,2010-05-01T14:00:00Z,29.4412,-92.0613,1001.046,11111222 
WAVCIS,ioos:station:WAVCIS:CSI03:1,2010-05-01T15:00:00Z,29.4412,-92.0613,1001.701,11111222 
WAVCIS,ioos:station:WAVCIS:CSI03:1,2010-05-01T16:00:00Z,29.4412,-92.0613,1002.311,11111222 
WAVCIS,ioos:station:WAVCIS:CSI03:1,2010-05-01T17:00:00Z,29.4412,-92.0613,1002.488,11111222 
WAVCIS,ioos:station:WAVCIS:CSI03:1,2010-05-01T18:00:00Z,29.4412,-92.0613,1001.892,11111222 
WAVCIS,ioos:station:WAVCIS:CSI03:1,2010-05-01T19:00:00Z,29.4412,-92.0613,1001.174,11111222 
WAVCIS,ioos:station:WAVCIS:CSI03:1,2010-05-01T20:00:00Z,29.4412,-92.0613,1000.792,11111222 
WAVCIS,ioos:station:WAVCIS:CSI03:1,2010-05-01T21:00:00Z,29.4412,-92.0613,999.855,11111222 
WAVCIS,ioos:station:WAVCIS:CSI03:1,2010-05-01T22:00:00Z,29.4412,-92.0613,999.042,11111222 
WAVCIS,ioos:station:WAVCIS:CSI03:1,2010-05-01T23:00:00Z,29.4412,-92.0613,998.742,11111222 
WAVCIS,ioos:station:WAVCIS:CSI03:1,2010-05-02T00:00:00Z,29.4412,-92.0613,998.704,11111222 
WAVCIS,ioos:station:WAVCIS:CSI03:1,2010-05-02T01:00:00Z,29.4412,-92.0613,999.181,11111222 
WAVCIS,ioos:station:WAVCIS:CSI03:1,2010-05-02T02:00:00Z,29.4412,-92.0613,999.07,11111222 
WAVCIS,ioos:station:WAVCIS:CSI03:1,2010-05-02T03:00:00Z,29.4412,-92.0613,999.893,11111222 
WAVCIS,ioos:station:WAVCIS:CSI03:1,2010-05-02T04:00:00Z,29.4412,-92.0613,1000.64,11111222 
WAVCIS,ioos:station:WAVCIS:CSI03:1,2010-05-02T05:00:00Z,29.4412,-92.0613,1000.44,11111222 
WAVCIS,ioos:station:WAVCIS:CSI03:1,2010-05-02T06:00:00Z,29.4412,-92.0613,1001.206,11111222 
WAVCIS,ioos:station:WAVCIS:CSI03:1,2010-05-02T07:00:00Z,29.4412,-92.0613,1000.947,11111222 
WAVCIS,ioos:station:WAVCIS:CSI03:1,2010-05-02T08:00:00Z,29.4412,-92.0613,1000.994,11111222 
WAVCIS,ioos:station:WAVCIS:CSI03:1,2010-05-02T09:00:00Z,29.4412,-92.0613,1000.6,11111222 
WAVCIS,ioos:station:WAVCIS:CSI03:1,2010-05-02T10:00:00Z,29.4412,-92.0613,1001.468,11111222 
WAVCIS,ioos:station:WAVCIS:CSI03:1,2010-05-02T11:00:00Z,29.4412,-92.0613,1001.746,11111222 
WAVCIS,ioos:station:WAVCIS:CSI03:1,2010-05-02T12:00:00Z,29.4412,-92.0613,1002.347,11111222 
WAVCIS,ioos:station:WAVCIS:CSI03:1,2010-05-02T13:00:00Z,29.4412,-92.0613,1003.19,11111222 
WAVCIS,ioos:station:WAVCIS:CSI03:1,2010-05-02T14:00:00Z,29.4412,-92.0613,1003.723,11111222 
WAVCIS,ioos:station:WAVCIS:CSI03:1,2010-05-02T15:00:00Z,29.4412,-92.0613,1004.057,11111222 
WAVCIS,ioos:station:WAVCIS:CSI03:1,2010-05-02T16:00:00Z,29.4412,-92.0613,1004.644,11111222 
WAVCIS,ioos:station:WAVCIS:CSI03:1,2010-05-02T17:00:00Z,29.4412,-92.0613,1004.948,11111222 
WAVCIS,ioos:station:WAVCIS:CSI03:1,2010-05-02T18:00:00Z,29.4412,-92.0613,1004.876,11111222 
WAVCIS,ioos:station:WAVCIS:CSI03:1,2010-05-02T19:00:00Z,29.4412,-92.0613,1004.983,11111222 
WAVCIS,ioos:station:WAVCIS:CSI03:1,2010-05-02T20:00:00Z,29.4412,-92.0613,1004.823,11111222 
WAVCIS,ioos:station:WAVCIS:CSI03:1,2010-05-02T21:00:00Z,29.4412,-92.0613,1004.692,11111222 
WAVCIS,ioos:station:WAVCIS:CSI03:1,2010-05-02T22:00:00Z,29.4412,-92.0613,1004.371,11111222 
WAVCIS,ioos:station:WAVCIS:CSI03:1,2010-05-02T23:00:00Z,29.4412,-92.0613,1004.763,11111222 
WAVCIS,ioos:station:WAVCIS:CSI03:1,2010-05-03T00:00:00Z,29.4412,-92.0613,1005.028,11111222 
WAVCIS,ioos:station:WAVCIS:CSI03:1,2010-05-03T01:00:00Z,29.4412,-92.0613,1005.341,11111222 
WAVCIS,ioos:station:WAVCIS:CSI03:1,2010-05-03T02:00:00Z,29.4412,-92.0613,1006.329,11111222 
WAVCIS,ioos:station:WAVCIS:CSI03:1,2010-05-03T03:00:00Z,29.4412,-92.0613,1007.09,11111222 
WAVCIS,ioos:station:WAVCIS:CSI03:1,2010-05-03T04:00:00Z,29.4412,-92.0613,1007.78,11111222 
WAVCIS,ioos:station:WAVCIS:CSI03:1,2010-05-03T05:00:00Z,29.4412,-92.0613,1008.25,11111222 
WAVCIS,ioos:station:WAVCIS:CSI03:1,2010-05-03T06:00:00Z,29.4412,-92.0613,1008.37,11111222 
WAVCIS,ioos:station:WAVCIS:CSI03:1,2010-05-03T07:00:00Z,29.4412,-92.0613,1007.92,11111222 
WAVCIS,ioos:station:WAVCIS:CSI03:1,2010-05-03T08:00:00Z,29.4412,-92.0613,1008.08,11111222 
WAVCIS,ioos:station:WAVCIS:CSI03:1,2010-05-03T09:00:00Z,29.4412,-92.0613,1008.65,11111222 
WAVCIS,ioos:station:WAVCIS:CSI03:1,2010-05-03T10:00:00Z,29.4412,-92.0613,1009.19,11111222 
WAVCIS,ioos:station:WAVCIS:CSI03:1,2010-05-03T11:00:00Z,29.4412,-92.0613,1009.48,11111222 
WAVCIS,ioos:station:WAVCIS:CSI03:1,2010-05-03T12:00:00Z,29.4412,-92.0613,1010.16,11111222 
WAVCIS,ioos:station:WAVCIS:CSI03:1,2010-05-03T13:00:00Z,29.4412,-92.0613,1010.94,11111222 
WAVCIS,ioos:station:WAVCIS:CSI03:1,2010-05-03T14:00:00Z,29.4412,-92.0613,1011.33,11111222 
WAVCIS,ioos:station:WAVCIS:CSI03:1,2010-05-03T15:00:00Z,29.4412,-92.0613,1011.64,11111222 
WAVCIS,ioos:station:WAVCIS:CSI03:1,2010-05-03T16:00:00Z,29.4412,-92.0613,1011.55,11111222 
WAVCIS,ioos:station:WAVCIS:CSI03:1,2010-05-03T17:00:00Z,29.4412,-92.0613,1011.39,11111222 
WAVCIS,ioos:station:WAVCIS:CSI03:1,2010-05-03T18:00:00Z,29.4412,-92.0613,1010.77,11111222 
WAVCIS,ioos:station:WAVCIS:CSI03:1,2010-05-03T19:00:00Z,29.4412,-92.0613,1010.29,11111222 
WAVCIS,ioos:station:WAVCIS:CSI03:1,2010-05-03T20:00:00Z,29.4412,-92.0613,1009.52,11111222 
WAVCIS,ioos:station:WAVCIS:CSI03:1,2010-05-03T21:00:00Z,29.4412,-92.0613,1009.07,11111222 
WAVCIS,ioos:station:WAVCIS:CSI03:1,2010-05-03T22:00:00Z,29.4412,-92.0613,1008.94,11111222 
WAVCIS,ioos:station:WAVCIS:CSI03:1,2010-05-03T23:00:00Z,29.4412,-92.0613,1009.4,11111222 
WAVCIS,ioos:station:WAVCIS:CSI03:1,2010-05-04T00:00:00Z,29.4412,-92.0613,1009.9,11111222 
WAVCIS,ioos:station:WAVCIS:CSI03:1,2010-05-04T01:00:00Z,29.4412,-92.0613,1010.24,11111222 
WAVCIS,ioos:station:WAVCIS:CSI03:1,2010-05-04T02:00:00Z,29.4412,-92.0613,1010.92,11111222 
WAVCIS,ioos:station:WAVCIS:CSI03:1,2010-05-04T03:00:00Z,29.4412,-92.0613,1011.61,11111222 
WAVCIS,ioos:station:WAVCIS:CSI03:1,2010-05-04T04:00:00Z,29.4412,-92.0613,1012.09,11111222 
WAVCIS,ioos:station:WAVCIS:CSI03:1,2010-05-04T05:00:00Z,29.4412,-92.0613,1012.03,11111222 
WAVCIS,ioos:station:WAVCIS:CSI03:1,2010-05-04T06:00:00Z,29.4412,-92.0613,1011.92,11111222 
WAVCIS,ioos:station:WAVCIS:CSI03:1,2010-05-04T07:00:00Z,29.4412,-92.0613,1011.59,11111222 
WAVCIS,ioos:station:WAVCIS:CSI03:1,2010-05-04T08:00:00Z,29.4412,-92.0613,1011.28,11111222 
WAVCIS,ioos:station:WAVCIS:CSI03:1,2010-05-04T09:00:00Z,29.4412,-92.0613,1011.46,11111222 
WAVCIS,ioos:station:WAVCIS:CSI03:1,2010-05-04T10:00:00Z,29.4412,-92.0613,1011.82,11111222 
WAVCIS,ioos:station:WAVCIS:CSI03:1,2010-05-04T11:00:00Z,29.4412,-92.0613,1011.94,11111222 
WAVCIS,ioos:station:WAVCIS:CSI03:1,2010-05-04T12:00:00Z,29.4412,-92.0613,1012.61,11111222 
WAVCIS,ioos:station:WAVCIS:CSI03:1,2010-05-04T13:00:00Z,29.4412,-92.0613,1012.67,11111222 
WAVCIS,ioos:station:WAVCIS:CSI03:1,2010-05-04T14:00:00Z,29.4412,-92.0613,1012.66,11111222 
WAVCIS,ioos:station:WAVCIS:CSI03:1,2010-05-04T15:00:00Z,29.4412,-92.0613,1012.69,11111222 
WAVCIS,ioos:station:WAVCIS:CSI03:1,2010-05-04T16:00:00Z,29.4412,-92.0613,1012.99,11111222 
WAVCIS,ioos:station:WAVCIS:CSI03:1,2010-05-04T17:00:00Z,29.4412,-92.0613,1013.24,11111222 
WAVCIS,ioos:station:WAVCIS:CSI03:1,2010-05-04T18:00:00Z,29.4412,-92.0613,1012.96,11111222 
WAVCIS,ioos:station:WAVCIS:CSI03:1,2010-05-04T19:00:00Z,29.4412,-92.0613,1012.35,11111222 
WAVCIS,ioos:station:WAVCIS:CSI03:1,2010-05-04T20:00:00Z,29.4412,-92.0613,1011.94,11111222 
WAVCIS,ioos:station:WAVCIS:CSI03:1,2010-05-04T21:00:00Z,29.4412,-92.0613,1011.25,11111222 
WAVCIS,ioos:station:WAVCIS:CSI03:1,2010-05-04T22:00:00Z,29.4412,-92.0613,1010.73,11111222 
WAVCIS,ioos:station:WAVCIS:CSI03:1,2010-05-04T23:00:00Z,29.4412,-92.0613,1010.46,11111222 
WAVCIS,ioos:station:WAVCIS:CSI03:1,2010-05-05T00:00:00Z,29.4412,-92.0613,1010.32,11111222 
WAVCIS,ioos:station:WAVCIS:CSI03:1,2010-05-05T01:00:00Z,29.4412,-92.0613,1010.48,11111222 
WAVCIS,ioos:station:WAVCIS:CSI03:1,2010-05-05T02:00:00Z,29.4412,-92.0613,1010.91,11111222 
WAVCIS,ioos:station:WAVCIS:CSI03:1,2010-05-05T03:00:00Z,29.4412,-92.0613,1011.21,11111222 
WAVCIS,ioos:station:WAVCIS:CSI03:1,2010-05-05T04:00:00Z,29.4412,-92.0613,1011.31,11111222 
WAVCIS,ioos:station:WAVCIS:CSI03:1,2010-05-05T05:00:00Z,29.4412,-92.0613,1011.0,11111222 
WAVCIS,ioos:station:WAVCIS:CSI03:1,2010-05-05T06:00:00Z,29.4412,-92.0613,1010.67,11111222 
WAVCIS,ioos:station:WAVCIS:CSI03:1,2010-05-05T07:00:00Z,29.4412,-92.0613,1010.16,11111222 
WAVCIS,ioos:station:WAVCIS:CSI03:1,2010-05-05T08:00:00Z,29.4412,-92.0613,1010.04,11111222 
WAVCIS,ioos:station:WAVCIS:CSI03:1,2010-05-05T09:00:00Z,29.4412,-92.0613,1010.24,11111222 
WAVCIS,ioos:station:WAVCIS:CSI03:1,2010-05-05T10:00:00Z,29.4412,-92.0613,1010.24,11111222 
WAVCIS,ioos:station:WAVCIS:CSI03:1,2010-05-05T11:00:00Z,29.4412,-92.0613,1010.62,11111222 
WAVCIS,ioos:station:WAVCIS:CSI03:1,2010-05-05T12:00:00Z,29.4412,-92.0613,1011.39,11111222 
WAVCIS,ioos:station:WAVCIS:CSI03:1,2010-05-05T13:00:00Z,29.4412,-92.0613,1011.99,11111222 
WAVCIS,ioos:station:WAVCIS:CSI03:1,2010-05-05T14:00:00Z,29.4412,-92.0613,1012.62,11111222 
WAVCIS,ioos:station:WAVCIS:CSI03:1,2010-05-05T15:00:00Z,29.4412,-92.0613,1012.85,11111222 
WAVCIS,ioos:station:WAVCIS:CSI03:1,2010-05-05T16:00:00Z,29.4412,-92.0613,1013.22,11111222 
WAVCIS,ioos:station:WAVCIS:CSI03:1,2010-05-05T17:00:00Z,29.4412,-92.0613,1013.09,11111222 
WAVCIS,ioos:station:WAVCIS:CSI03:1,2010-05-05T18:00:00Z,29.4412,-92.0613,1012.77,11111222 
WAVCIS,ioos:station:WAVCIS:CSI03:1,2010-05-05T19:00:00Z,29.4412,-92.0613,1012.42,11111222 
WAVCIS,ioos:station:WAVCIS:CSI03:1,2010-05-05T20:00:00Z,29.4412,-92.0613,1011.98,11111222 
WAVCIS,ioos:station:WAVCIS:CSI03:1,2010-05-05T21:00:00Z,29.4412,-92.0613,1011.43,11111222 
WAVCIS,ioos:station:WAVCIS:CSI03:1,2010-05-05T22:00:00Z,29.4412,-92.0613,1011.06,11111222 
WAVCIS,ioos:station:WAVCIS:CSI03:1,2010-05-05T23:00:00Z,29.4412,-92.0613,1011.11,11111222 
WAVCIS,ioos:station:WAVCIS:CSI03:1,2010-05-06T00:00:00Z,29.4412,-92.0613,1011.18,11111222 
WAVCIS,ioos:station:WAVCIS:CSI03:1,2010-05-06T01:00:00Z,29.4412,-92.0613,1011.43,11111222 
WAVCIS,ioos:station:WAVCIS:CSI03:1,2010-05-06T02:00:00Z,29.4412,-92.0613,1011.78,11111222 
WAVCIS,ioos:station:WAVCIS:CSI03:1,2010-05-06T03:00:00Z,29.4412,-92.0613,1012.19,11111222 
WAVCIS,ioos:station:WAVCIS:CSI03:1,2010-05-06T04:00:00Z,29.4412,-92.0613,1012.34,11111222 
WAVCIS,ioos:station:WAVCIS:CSI03:1,2010-05-06T05:00:00Z,29.4412,-92.0613,1012.16,11111222 
WAVCIS,ioos:station:WAVCIS:CSI03:1,2010-05-06T06:00:00Z,29.4412,-92.0613,1012.09,11111222 
WAVCIS,ioos:station:WAVCIS:CSI03:1,2010-05-06T07:00:00Z,29.4412,-92.0613,1011.56,11111222 
WAVCIS,ioos:station:WAVCIS:CSI03:1,2010-05-06T08:00:00Z,29.4412,-92.0613,1011.29,11111222 
WAVCIS,ioos:station:WAVCIS:CSI03:1,2010-05-06T09:00:00Z,29.4412,-92.0613,1011.37,11111222 
WAVCIS,ioos:station:WAVCIS:CSI03:1,2010-05-06T10:00:00Z,29.4412,-92.0613,1011.52,11111222 
WAVCIS,ioos:station:WAVCIS:CSI03:1,2010-05-06T11:00:00Z,29.4412,-92.0613,1011.7,11111222 
WAVCIS,ioos:station:WAVCIS:CSI03:1,2010-05-06T12:00:00Z,29.4412,-92.0613,1012.09,11111222 
WAVCIS,ioos:station:WAVCIS:CSI03:1,2010-05-06T13:00:00Z,29.4412,-92.0613,1012.55,11111222 
WAVCIS,ioos:station:WAVCIS:CSI03:1,2010-05-06T14:00:00Z,29.4412,-92.0613,1012.98,11111222 
WAVCIS,ioos:station:WAVCIS:CSI03:1,2010-05-06T15:00:00Z,29.4412,-92.0613,1013.34,11111222 
WAVCIS,ioos:station:WAVCIS:CSI03:1,2010-05-06T16:00:00Z,29.4412,-92.0613,1013.76,11111222 
WAVCIS,ioos:station:WAVCIS:CSI03:1,2010-05-06T17:00:00Z,29.4412,-92.0613,1013.55,11111222 
WAVCIS,ioos:station:WAVCIS:CSI03:1,2010-05-06T18:00:00Z,29.4412,-92.0613,1013.34,11111222 
WAVCIS,ioos:station:WAVCIS:CSI03:1,2010-05-06T19:00:00Z,29.4412,-92.0613,1013.18,11111222 
WAVCIS,ioos:station:WAVCIS:CSI03:1,2010-05-06T20:00:00Z,29.4412,-92.0613,1012.48,11111222 
WAVCIS,ioos:station:WAVCIS:CSI03:1,2010-05-06T21:00:00Z,29.4412,-92.0613,1011.78,11111222 
WAVCIS,ioos:station:WAVCIS:CSI03:1,2010-05-06T22:00:00Z,29.4412,-92.0613,1011.51,11111222 
WAVCIS,ioos:station:WAVCIS:CSI03:1,2010-05-06T23:00:00Z,29.4412,-92.0613,1011.33,11111222 
WAVCIS,ioos:station:WAVCIS:CSI03:1,2010-05-07T00:00:00Z,29.4412,-92.0613,1011.1,11111222 
WAVCIS,ioos:station:WAVCIS:CSI03:1,2010-05-07T01:00:00Z,29.4412,-92.0613,1011.15,11111222 
WAVCIS,ioos:station:WAVCIS:CSI03:1,2010-05-07T02:00:00Z,29.4412,-92.0613,1011.38,11111222 
WAVCIS,ioos:station:WAVCIS:CSI03:1,2010-05-07T03:00:00Z,29.4412,-92.0613,1011.49,11111222 
WAVCIS,ioos:station:WAVCIS:CSI03:1,2010-05-07T04:00:00Z,29.4412,-92.0613,1011.5,11111222 
WAVCIS,ioos:station:WAVCIS:CSI03:1,2010-05-07T05:00:00Z,29.4412,-92.0613,1010.89,11111222 
WAVCIS,ioos:station:WAVCIS:CSI03:1,2010-05-07T06:00:00Z,29.4412,-92.0613,1010.59,11111222 
WAVCIS,ioos:station:WAVCIS:CSI03:1,2010-05-07T07:00:00Z,29.4412,-92.0613,1010.03,11111222 
WAVCIS,ioos:station:WAVCIS:CSI03:1,2010-05-07T08:00:00Z,29.4412,-92.0613,1009.97,11111222 
WAVCIS,ioos:station:WAVCIS:CSI03:1,2010-05-07T09:00:00Z,29.4412,-92.0613,1010.06,11111222 
WAVCIS,ioos:station:WAVCIS:CSI03:1,2010-05-07T10:00:00Z,29.4412,-92.0613,1010.23,11111222 
WAVCIS,ioos:station:WAVCIS:CSI03:1,2010-05-07T11:00:00Z,29.4412,-92.0613,1010.33,11111222 
WAVCIS,ioos:station:WAVCIS:CSI03:1,2010-05-07T12:00:00Z,29.4412,-92.0613,1010.91,11111222 
WAVCIS,ioos:station:WAVCIS:CSI03:1,2010-05-07T13:00:00Z,29.4412,-92.0613,1011.29,11111222 
WAVCIS,ioos:station:WAVCIS:CSI03:1,2010-05-07T14:00:00Z,29.4412,-92.0613,1011.76,11111222 
WAVCIS,ioos:station:WAVCIS:CSI03:1,2010-05-07T15:00:00Z,29.4412,-92.0613,1011.99,11111222 
WAVCIS,ioos:station:WAVCIS:CSI03:1,2010-05-07T16:00:00Z,29.4412,-92.0613,1012.7,11111222 
WAVCIS,ioos:station:WAVCIS:CSI03:1,2010-05-07T17:00:00Z,29.4412,-92.0613,1012.95,11111222 
WAVCIS,ioos:station:WAVCIS:CSI03:1,2010-05-07T18:00:00Z,29.4412,-92.0613,1013.16,11111222 
WAVCIS,ioos:station:WAVCIS:CSI03:1,2010-05-07T19:00:00Z,29.4412,-92.0613,1013.4,11111222 
WAVCIS,ioos:station:WAVCIS:CSI03:1,2010-05-07T20:00:00Z,29.4412,-92.0613,1013.32,11111222 
WAVCIS,ioos:station:WAVCIS:CSI03:1,2010-05-07T21:00:00Z,29.4412,-92.0613,1013.22,11111222 
WAVCIS,ioos:station:WAVCIS:CSI03:1,2010-05-07T22:00:00Z,29.4412,-92.0613,1012.97,11111222 
WAVCIS,ioos:station:WAVCIS:CSI03:1,2010-05-07T23:00:00Z,29.4412,-92.0613,1012.84,11111222 
WAVCIS,ioos:station:WAVCIS:CSI03:1,2010-05-08T00:00:00Z,29.4412,-92.0613,1012.77,11111222 
WAVCIS,ioos:station:WAVCIS:CSI03:1,2010-05-08T01:00:00Z,29.4412,-92.0613,1012.98,11111222 
WAVCIS,ioos:station:WAVCIS:CSI03:1,2010-05-08T02:00:00Z,29.4412,-92.0613,1013.38,11111222 
WAVCIS,ioos:station:WAVCIS:CSI03:1,2010-05-08T03:00:00Z,29.4412,-92.0613,1013.96,11111222 
WAVCIS,ioos:station:WAVCIS:CSI03:1,2010-05-08T04:00:00Z,29.4412,-92.0613,1014.28,11111222 
WAVCIS,ioos:station:WAVCIS:CSI03:1,2010-05-08T05:00:00Z,29.4412,-92.0613,1014.32,11111222 
WAVCIS,ioos:station:WAVCIS:CSI03:1,2010-05-08T06:00:00Z,29.4412,-92.0613,1014.49,11111222 
WAVCIS,ioos:station:WAVCIS:CSI03:1,2010-05-08T07:00:00Z,29.4412,-92.0613,1014.44,11111222 
WAVCIS,ioos:station:WAVCIS:CSI03:1,2010-05-08T08:00:00Z,29.4412,-92.0613,1014.1,11111222 
WAVCIS,ioos:station:WAVCIS:CSI03:1,2010-05-08T09:00:00Z,29.4412,-92.0613,1013.94,11111222 
WAVCIS,ioos:station:WAVCIS:CSI03:1,2010-05-08T10:00:00Z,29.4412,-92.0613,1014.52,11111222 
WAVCIS,ioos:station:WAVCIS:CSI03:1,2010-05-08T11:00:00Z,29.4412,-92.0613,1015.36,11111222 
WAVCIS,ioos:station:WAVCIS:CSI03:1,2010-05-08T12:00:00Z,29.4412,-92.0613,1016.46,11111222 
WAVCIS,ioos:station:WAVCIS:CSI03:1,2010-05-08T13:00:00Z,29.4412,-92.0613,1017.21,11111222 
WAVCIS,ioos:station:WAVCIS:CSI03:1,2010-05-08T14:00:00Z,29.4412,-92.0613,1017.71,11111222 
WAVCIS,ioos:station:WAVCIS:CSI03:1,2010-05-08T15:00:00Z,29.4412,-92.0613,1018.02,11111222 
WAVCIS,ioos:station:WAVCIS:CSI03:1,2010-05-08T16:00:00Z,29.4412,-92.0613,1018.27,11111222 
WAVCIS,ioos:station:WAVCIS:CSI03:1,2010-05-08T17:00:00Z,29.4412,-92.0613,1018.31,11111222 
WAVCIS,ioos:station:WAVCIS:CSI03:1,2010-05-08T18:00:00Z,29.4412,-92.0613,1018.17,11111222 
WAVCIS,ioos:station:WAVCIS:CSI03:1,2010-05-08T19:00:00Z,29.4412,-92.0613,1017.96,11111222 
WAVCIS,ioos:station:WAVCIS:CSI03:1,2010-05-08T20:00:00Z,29.4412,-92.0613,1017.7,11111222 
WAVCIS,ioos:station:WAVCIS:CSI03:1,2010-05-08T21:00:00Z,29.4412,-92.0613,1017.44,11111222 
WAVCIS,ioos:station:WAVCIS:CSI03:1,2010-05-08T22:00:00Z,29.4412,-92.0613,1017.27,11111222 
WAVCIS,ioos:station:WAVCIS:CSI03:1,2010-05-08T23:00:00Z,29.4412,-92.0613,1017.25,11111222 
WAVCIS,ioos:station:WAVCIS:CSI03:1,2010-05-09T00:00:00Z,29.4412,-92.0613,1017.07,11111222 
WAVCIS,ioos:station:WAVCIS:CSI03:1,2010-05-09T01:00:00Z,29.4412,-92.0613,1017.43,11111222 
WAVCIS,ioos:station:WAVCIS:CSI03:1,2010-05-09T02:00:00Z,29.4412,-92.0613,1018.29,11111222 
WAVCIS,ioos:station:WAVCIS:CSI03:1,2010-05-09T03:00:00Z,29.4412,-92.0613,1018.89,11111222 
WAVCIS,ioos:station:WAVCIS:CSI03:1,2010-05-09T04:00:00Z,29.4412,-92.0613,1019.34,11111222 
WAVCIS,ioos:station:WAVCIS:CSI03:1,2010-05-09T05:00:00Z,29.4412,-92.0613,1019.23,11111222 
WAVCIS,ioos:station:WAVCIS:CSI03:1,2010-05-09T06:00:00Z,29.4412,-92.0613,1018.93,11111222 
WAVCIS,ioos:station:WAVCIS:CSI03:1,2010-05-09T07:00:00Z,29.4412,-92.0613,1018.36,11111222 
WAVCIS,ioos:station:WAVCIS:CSI03:1,2010-05-09T08:00:00Z,29.4412,-92.0613,1018.17,11111222 
WAVCIS,ioos:station:WAVCIS:CSI03:1,2010-05-09T09:00:00Z,29.4412,-92.0613,1017.98,11111222 
WAVCIS,ioos:station:WAVCIS:CSI03:1,2010-05-09T10:00:00Z,29.4412,-92.0613,1018.31,11111222 
WAVCIS,ioos:station:WAVCIS:CSI03:1,2010-05-09T11:00:00Z,29.4412,-92.0613,1018.81,11111222 
WAVCIS,ioos:station:WAVCIS:CSI03:1,2010-05-09T12:00:00Z,29.4412,-92.0613,1019.5,11111222 
WAVCIS,ioos:station:WAVCIS:CSI03:1,2010-05-09T13:00:00Z,29.4412,-92.0613,1019.95,11111222 
WAVCIS,ioos:station:WAVCIS:CSI03:1,2010-05-09T14:00:00Z,29.4412,-92.0613,1020.07,11111222 
WAVCIS,ioos:station:WAVCIS:CSI03:1,2010-05-09T15:00:00Z,29.4412,-92.0613,1020.79,11111222 
WAVCIS,ioos:station:WAVCIS:CSI03:1,2010-05-09T16:00:00Z,29.4412,-92.0613,1020.4,11111222 
WAVCIS,ioos:station:WAVCIS:CSI03:1,2010-05-09T17:00:00Z,29.4412,-92.0613,1020.13,11111222 
WAVCIS,ioos:station:WAVCIS:CSI03:1,2010-05-09T18:00:00Z,29.4412,-92.0613,1019.14,11111222 
WAVCIS,ioos:station:WAVCIS:CSI03:1,2010-05-09T19:00:00Z,29.4412,-92.0613,1019.1,11111222 
WAVCIS,ioos:station:WAVCIS:CSI03:1,2010-05-09T20:00:00Z,29.4412,-92.0613,1019.07,11111222 
WAVCIS,ioos:station:WAVCIS:CSI03:1,2010-05-09T21:00:00Z,29.4412,-92.0613,1018.25,11111222 
WAVCIS,ioos:station:WAVCIS:CSI03:1,2010-05-09T22:00:00Z,29.4412,-92.0613,1017.75,11111222 
WAVCIS,ioos:station:WAVCIS:CSI03:1,2010-05-09T23:00:00Z,29.4412,-92.0613,1017.38,11111222 
WAVCIS,ioos:station:WAVCIS:CSI03:1,2010-05-10T00:00:00Z,29.4412,-92.0613,1017.75,11111222 
WAVCIS,ioos:station:WAVCIS:CSI03:1,2010-05-10T01:00:00Z,29.4412,-92.0613,1017.54,11111222 
WAVCIS,ioos:station:WAVCIS:CSI03:1,2010-05-10T02:00:00Z,29.4412,-92.0613,1018.1,11111222 
WAVCIS,ioos:station:WAVCIS:CSI03:1,2010-05-10T03:00:00Z,29.4412,-92.0613,1018.05,11111222 
WAVCIS,ioos:station:WAVCIS:CSI03:1,2010-05-10T04:00:00Z,29.4412,-92.0613,1018.02,11111222 
WAVCIS,ioos:station:WAVCIS:CSI03:1,2010-05-10T05:00:00Z,29.4412,-92.0613,1018.15,11111222 
WAVCIS,ioos:station:WAVCIS:CSI03:1,2010-05-10T06:00:00Z,29.4412,-92.0613,1017.58,11111222 
WAVCIS,ioos:station:WAVCIS:CSI03:1,2010-05-10T07:00:00Z,29.4412,-92.0613,1017.07,11111222 
WAVCIS,ioos:station:WAVCIS:CSI03:1,2010-05-10T08:00:00Z,29.4412,-92.0613,1016.25,11111222 
WAVCIS,ioos:station:WAVCIS:CSI03:1,2010-05-10T09:00:00Z,29.4412,-92.0613,1016.22,11111222 
WAVCIS,ioos:station:WAVCIS:CSI03:1,2010-05-10T10:00:00Z,29.4412,-92.0613,1016.09,11111222 
WAVCIS,ioos:station:WAVCIS:CSI03:1,2010-05-10T11:00:00Z,29.4412,-92.0613,1016.11,11111222 
WAVCIS,ioos:station:WAVCIS:CSI03:1,2010-05-10T12:00:00Z,29.4412,-92.0613,1016.03,11111222 
WAVCIS,ioos:station:WAVCIS:CSI03:1,2010-05-10T13:00:00Z,29.4412,-92.0613,1016.03,11111222 
WAVCIS,ioos:station:WAVCIS:CSI03:1,2010-05-10T14:00:00Z,29.4412,-92.0613,1016.0,11111222 
WAVCIS,ioos:station:WAVCIS:CSI03:1,2010-05-10T15:00:00Z,29.4412,-92.0613,1016.48,11111222 
WAVCIS,ioos:station:WAVCIS:CSI03:1,2010-05-10T16:00:00Z,29.4412,-92.0613,1016.48,11111222 
WAVCIS,ioos:station:WAVCIS:CSI03:1,2010-05-10T17:00:00Z,29.4412,-92.0613,1015.77,11111222 
WAVCIS,ioos:station:WAVCIS:CSI03:1,2010-05-10T18:00:00Z,29.4412,-92.0613,1015.22,11111222 
WAVCIS,ioos:station:WAVCIS:CSI03:1,2010-05-10T19:00:00Z,29.4412,-92.0613,1014.94,11111222 
WAVCIS,ioos:station:WAVCIS:CSI03:1,2010-05-10T20:00:00Z,29.4412,-92.0613,1014.33,11111222 
WAVCIS,ioos:station:WAVCIS:CSI03:1,2010-05-10T21:00:00Z,29.4412,-92.0613,1013.67,11111222 
WAVCIS,ioos:station:WAVCIS:CSI03:1,2010-05-10T22:00:00Z,29.4412,-92.0613,1013.55,11111222 
WAVCIS,ioos:station:WAVCIS:CSI03:1,2010-05-10T23:00:00Z,29.4412,-92.0613,1013.0,11111222 
WAVCIS,ioos:station:WAVCIS:CSI03:1,2010-05-11T00:00:00Z,29.4412,-92.0613,1012.73,11111222 
WAVCIS,ioos:station:WAVCIS:CSI03:1,2010-05-11T01:00:00Z,29.4412,-92.0613,1012.75,11111222 
WAVCIS,ioos:station:WAVCIS:CSI03:1,2010-05-11T02:00:00Z,29.4412,-92.0613,1012.39,11111222 
WAVCIS,ioos:station:WAVCIS:CSI03:1,2010-05-11T03:00:00Z,29.4412,-92.0613,1012.2,11111222 
WAVCIS,ioos:station:WAVCIS:CSI03:1,2010-05-11T04:00:00Z,29.4412,-92.0613,1012.26,11111222 
WAVCIS,ioos:station:WAVCIS:CSI03:1,2010-05-11T05:00:00Z,29.4412,-92.0613,1012.49,11111222 
WAVCIS,ioos:station:WAVCIS:CSI03:1,2010-05-11T06:00:00Z,29.4412,-92.0613,1012.39,11111222 
WAVCIS,ioos:station:WAVCIS:CSI03:1,2010-05-11T07:00:00Z,29.4412,-92.0613,1012.11,11111222 
WAVCIS,ioos:station:WAVCIS:CSI03:1,2010-05-11T08:00:00Z,29.4412,-92.0613,1012.72,11111222 
WAVCIS,ioos:station:WAVCIS:CSI03:1,2010-05-11T09:00:00Z,29.4412,-92.0613,1013.05,11111222 
WAVCIS,ioos:station:WAVCIS:CSI03:1,2010-05-11T10:00:00Z,29.4412,-92.0613,1012.68,11111222 
WAVCIS,ioos:station:WAVCIS:CSI03:1,2010-05-11T11:00:00Z,29.4412,-92.0613,1012.87,11111222 
WAVCIS,ioos:station:WAVCIS:CSI03:1,2010-05-11T12:00:00Z,29.4412,-92.0613,1013.68,11111222 
WAVCIS,ioos:station:WAVCIS:CSI03:1,2010-05-11T13:00:00Z,29.4412,-92.0613,1014.5,11111222 
WAVCIS,ioos:station:WAVCIS:CSI03:1,2010-05-11T14:00:00Z,29.4412,-92.0613,1014.63,11111222 
WAVCIS,ioos:station:WAVCIS:CSI03:1,2010-05-11T15:00:00Z,29.4412,-92.0613,1014.9,11111222 
WAVCIS,ioos:station:WAVCIS:CSI03:1,2010-05-11T16:00:00Z,29.4412,-92.0613,1014.8,11111222 
WAVCIS,ioos:station:WAVCIS:CSI03:1,2010-05-11T17:00:00Z,29.4412,-92.0613,1014.79,11111222 
WAVCIS,ioos:station:WAVCIS:CSI03:1,2010-05-11T18:00:00Z,29.4412,-92.0613,1014.54,11111222 
WAVCIS,ioos:station:WAVCIS:CSI03:1,2010-05-11T19:00:00Z,29.4412,-92.0613,1014.2,11111222 
WAVCIS,ioos:station:WAVCIS:CSI03:1,2010-05-11T20:00:00Z,29.4412,-92.0613,1013.74,11111222 
WAVCIS,ioos:station:WAVCIS:CSI03:1,2010-05-11T21:00:00Z,29.4412,-92.0613,1013.18,11111222 